RA67199 UWKD-UWKE

Flight info

Callsign RA67199
Flight time N/A
Altitude 1500
Route UWKD/11 DCT GUBOM DCT RD DCT GUBOM DCT
Aircraft C172/L-S/C

Departure

Time N/A
Airport Kazan International Airport (UWKD)

Arrival

Time 2026-05-07 19:55
Airport Begishevo Airport (UWKE)
Time Latitude Longitude Altitude Speed Heading
2026-05-07 19:18 55.39167 50.29972 1497 ft 106 kts 81°
2026-05-07 19:18 55.39298 50.31252 1498 ft 105 kts 81°
2026-05-07 19:18 55.39433 50.32518 1495 ft 105 kts 81°
2026-05-07 19:19 55.39563 50.33763 1491 ft 105 kts 81°
2026-05-07 19:19 55.39698 50.35026 1491 ft 105 kts 81°
2026-05-07 19:19 55.39833 50.36286 1489 ft 105 kts 81°
2026-05-07 19:19 55.39966 50.37545 1493 ft 104 kts 81°
2026-05-07 19:20 55.40097 50.38789 1492 ft 104 kts 81°
2026-05-07 19:20 55.40228 50.40046 1492 ft 104 kts 81°
2026-05-07 19:20 55.40355 50.41307 1493 ft 104 kts 81°
2026-05-07 19:20 55.40482 50.42545 1490 ft 104 kts 81°
2026-05-07 19:21 55.40608 50.43782 1500 ft 103 kts 81°
2026-05-07 19:21 55.40735 50.45032 1497 ft 104 kts 81°
2026-05-07 19:21 55.40867 50.46278 1494 ft 103 kts 81°
2026-05-07 19:21 55.40994 50.47516 1493 ft 102 kts 81°
2026-05-07 19:22 55.41120 50.48754 1495 ft 103 kts 81°
2026-05-07 19:22 55.41261 50.49978 1496 ft 103 kts 79°
2026-05-07 19:22 55.41433 50.51209 1497 ft 103 kts 77°
2026-05-07 19:22 55.41603 50.52431 1497 ft 104 kts 78°
2026-05-07 19:23 55.41777 50.53679 1497 ft 105 kts 78°
2026-05-07 19:23 55.41952 50.54932 1495 ft 105 kts 78°
2026-05-07 19:23 55.42125 50.56179 1495 ft 105 kts 78°
2026-05-07 19:23 55.42240 50.57007 1497 ft 105 kts 78°
2026-05-07 19:24 55.42473 50.58678 1496 ft 106 kts 78°
2026-05-07 19:24 55.42647 50.59937 1494 ft 106 kts 78°
2026-05-07 19:24 55.42757 50.60773 1495 ft 105 kts 80°
2026-05-07 19:24 55.42903 50.62036 1496 ft 105 kts 80°
2026-05-07 19:25 55.43049 50.63301 1501 ft 106 kts 80°
2026-05-07 19:25 55.43198 50.64574 1497 ft 106 kts 80°
2026-05-07 19:25 55.43344 50.65841 1498 ft 105 kts 80°
2026-05-07 19:25 55.43489 50.67093 1496 ft 106 kts 80°
2026-05-07 19:26 55.43638 50.68365 1494 ft 105 kts 80°
2026-05-07 19:26 55.43785 50.69622 1492 ft 104 kts 80°
2026-05-07 19:26 55.43927 50.70864 1495 ft 104 kts 80°
2026-05-07 19:26 55.44068 50.72116 1494 ft 103 kts 80°
2026-05-07 19:27 55.44202 50.73357 1496 ft 102 kts 81°
2026-05-07 19:27 55.44330 50.74572 1495 ft 102 kts 80°
2026-05-07 19:27 55.44456 50.75803 1493 ft 102 kts 80°
2026-05-07 19:27 55.44587 50.77043 1494 ft 103 kts 80°
2026-05-07 19:28 55.44719 50.78283 1493 ft 102 kts 80°
2026-05-07 19:28 55.44844 50.79504 1494 ft 102 kts 80°
2026-05-07 19:28 55.44970 50.80735 1495 ft 102 kts 80°
2026-05-07 19:28 55.45094 50.81962 1495 ft 102 kts 80°
2026-05-07 19:29 55.45222 50.83173 1493 ft 102 kts 80°
2026-05-07 19:29 55.45351 50.84403 1491 ft 102 kts 80°
2026-05-07 19:29 55.45478 50.85635 1492 ft 102 kts 80°
2026-05-07 19:29 55.45605 50.86859 1492 ft 101 kts 80°
2026-05-07 19:30 55.45734 50.88086 1488 ft 102 kts 80°
2026-05-07 19:30 55.45859 50.89296 1488 ft 101 kts 81°
2026-05-07 19:30 55.45976 50.90515 1487 ft 100 kts 81°
2026-05-07 19:30 55.46076 50.91741 1491 ft 101 kts 83°
2026-05-07 19:31 55.46164 50.92976 1491 ft 102 kts 82°
2026-05-07 19:31 55.46264 50.94197 1488 ft 101 kts 82°
2026-05-07 19:31 55.46361 50.95427 1489 ft 101 kts 82°
2026-05-07 19:31 55.46459 50.96664 1490 ft 102 kts 83°
2026-05-07 19:32 55.46558 50.97897 1491 ft 101 kts 82°
2026-05-07 19:32 55.46648 50.99115 1491 ft 102 kts 82°
2026-05-07 19:32 55.46730 51.00354 1490 ft 102 kts 84°
2026-05-07 19:32 55.46797 51.01593 1489 ft 101 kts 84°
2026-05-07 19:33 55.46863 51.02830 1494 ft 101 kts 84°
2026-05-07 19:33 55.46926 51.04064 1494 ft 102 kts 84°
2026-05-07 19:33 55.46988 51.05320 1492 ft 103 kts 84°
2026-05-07 19:33 55.47053 51.06573 1490 ft 102 kts 84°
2026-05-07 19:34 55.47120 51.07817 1493 ft 102 kts 84°
2026-05-07 19:34 55.47183 51.09076 1498 ft 103 kts 84°
2026-05-07 19:34 55.47243 51.10326 1498 ft 104 kts 84°
2026-05-07 19:34 55.47308 51.11589 1495 ft 103 kts 82°
2026-05-07 19:35 55.47413 51.12841 1493 ft 103 kts 81°
2026-05-07 19:35 55.47514 51.14081 1494 ft 104 kts 81°
2026-05-07 19:35 55.47616 51.15346 1492 ft 103 kts 82°
2026-05-07 19:35 55.47725 51.16596 1489 ft 103 kts 81°
2026-05-07 19:36 55.47839 51.17823 1491 ft 103 kts 79°
2026-05-07 19:36 55.47970 51.19074 1493 ft 104 kts 79°
2026-05-07 19:36 55.48098 51.20325 1491 ft 103 kts 79°
2026-05-07 19:36 55.48224 51.21564 1488 ft 102 kts 79°
2026-05-07 19:37 55.48357 51.22799 1487 ft 102 kts 79°
2026-05-07 19:37 55.48490 51.24019 1488 ft 103 kts 79°
2026-05-07 19:37 55.48623 51.25260 1490 ft 102 kts 79°
2026-05-07 19:37 55.48759 51.26497 1489 ft 102 kts 79°
2026-05-07 19:38 55.48893 51.27737 1486 ft 103 kts 79°
2026-05-07 19:38 55.49030 51.28973 1482 ft 102 kts 79°
2026-05-07 19:38 55.49164 51.30179 1487 ft 101 kts 79°
2026-05-07 19:38 55.49298 51.31408 1487 ft 102 kts 79°
2026-05-07 19:39 55.49432 51.32643 1484 ft 102 kts 79°
2026-05-07 19:39 55.49572 51.33859 1483 ft 101 kts 79°
2026-05-07 19:39 55.49714 51.35071 1483 ft 101 kts 79°
2026-05-07 19:39 55.49850 51.36278 1486 ft 101 kts 79°
2026-05-07 19:40 55.49987 51.37493 1488 ft 100 kts 79°
2026-05-07 19:40 55.50088 51.38707 1483 ft 100 kts 82°
2026-05-07 19:40 55.50190 51.39901 1491 ft 98 kts 83°
2026-05-07 19:40 55.50290 51.41090 1491 ft 99 kts 82°
2026-05-07 19:41 55.50380 51.42298 1494 ft 100 kts 82°
2026-05-07 19:41 55.50481 51.43514 1497 ft 100 kts 82°
2026-05-07 19:41 55.50582 51.44727 1499 ft 101 kts 82°
2026-05-07 19:41 55.50676 51.45969 1502 ft 102 kts 82°
2026-05-07 19:42 55.50766 51.47194 1494 ft 101 kts 83°
2026-05-07 19:42 55.50862 51.48428 1493 ft 101 kts 82°
2026-05-07 19:42 55.50964 51.49655 1493 ft 101 kts 82°
2026-05-07 19:42 55.51064 51.50887 1494 ft 101 kts 82°
2026-05-07 19:43 55.51156 51.52124 1497 ft 101 kts 82°
2026-05-07 19:43 55.51252 51.53353 1499 ft 102 kts 82°
2026-05-07 19:43 55.51348 51.54597 1500 ft 102 kts 82°
2026-05-07 19:43 55.51434 51.55851 1498 ft 103 kts 85°
2026-05-07 19:44 55.51461 51.57114 1501 ft 103 kts 88°
2026-05-07 19:44 55.51481 51.58385 1502 ft 103 kts 87°
2026-05-07 19:44 55.51499 51.59635 1498 ft 103 kts 87°
2026-05-07 19:44 55.51520 51.60902 1495 ft 103 kts 85°
2026-05-07 19:45 55.51589 51.62157 1491 ft 102 kts 84°
2026-05-07 19:45 55.51660 51.63413 1491 ft 103 kts 84°
2026-05-07 19:45 55.51719 51.64661 1491 ft 103 kts 84°
2026-05-07 19:45 55.51781 51.65919 1492 ft 103 kts 85°
2026-05-07 19:46 55.51852 51.67181 1493 ft 103 kts 84°
2026-05-07 19:46 55.51922 51.68443 1491 ft 103 kts 84°
2026-05-07 19:46 55.51984 51.69681 1491 ft 102 kts 84°
2026-05-07 19:46 55.52054 51.70935 1492 ft 103 kts 84°
2026-05-07 19:47 55.52124 51.72186 1490 ft 102 kts 84°
2026-05-07 19:47 55.52185 51.73428 1482 ft 101 kts 84°
2026-05-07 19:47 55.52258 51.74615 1496 ft 99 kts 83°
2026-05-07 19:47 55.52353 51.75827 1497 ft 101 kts 82°
2026-05-07 19:48 55.52449 51.77065 1497 ft 101 kts 82°
2026-05-07 19:48 55.52546 51.78292 1498 ft 101 kts 82°
2026-05-07 19:48 55.52643 51.79512 1496 ft 100 kts 82°
2026-05-07 19:48 55.52739 51.80716 1494 ft 101 kts 82°
2026-05-07 19:49 55.52836 51.81940 1498 ft 101 kts 82°
2026-05-07 19:49 55.52932 51.83165 1497 ft 100 kts 82°
2026-05-07 19:49 55.52872 51.84375 1501 ft 100 kts 104°
2026-05-07 19:49 55.52667 51.85535 1496 ft 100 kts 106°
2026-05-07 19:50 55.52433 51.86699 1504 ft 101 kts 107°
2026-05-07 19:50 55.52186 51.87862 1489 ft 100 kts 104°
2026-05-07 19:50 55.51998 51.89033 1497 ft 99 kts 92°
2026-05-07 19:50 55.52109 51.90225 1493 ft 99 kts 81°
2026-05-07 19:51 55.52209 51.91405 1496 ft 99 kts 80°
2026-05-07 19:51 55.52321 51.92613 1499 ft 100 kts 81°
2026-05-07 19:51 55.52413 51.93833 1511 ft 99 kts 81°
2026-05-07 19:51 55.52531 51.95026 1510 ft 99 kts 77°
2026-05-07 19:52 55.52687 51.96211 1517 ft 99 kts 76°
2026-05-07 19:52 55.52860 51.97379 1542 ft 99 kts 73°
2026-05-07 19:52 55.53086 51.98523 1546 ft 101 kts 69°
2026-05-07 19:52 55.53318 51.99644 1491 ft 91 kts 70°
2026-05-07 19:53 55.53520 52.00584 1420 ft 76 kts 69°
2026-05-07 19:53 55.53724 52.01456 1378 ft 79 kts 68°
2026-05-07 19:53 55.53946 52.02353 1373 ft 79 kts 67°
2026-05-07 19:53 55.54164 52.03238 1340 ft 78 kts 66°
2026-05-07 19:54 55.54369 52.04141 1255 ft 81 kts 69°
2026-05-07 19:54 55.54602 52.05037 1142 ft 76 kts 64°
2026-05-07 19:54 55.54853 52.05858 1004 ft 80 kts 57°
2026-05-07 19:54 55.55131 52.06688 893 ft 76 kts 54°
2026-05-07 19:55 55.55471 52.07367 752 ft 74 kts 44°
2026-05-07 19:55 55.55812 52.08017 654 ft 63 kts 46°
2026-05-07 19:55 55.56042 52.08453 644 ft 38 kts 46°
2026-05-07 19:55 55.56193 52.08735 645 ft 26 kts 46°
2026-05-07 19:56 55.56295 52.08933 646 ft 21 kts 46°
2026-05-07 19:56 55.56410 52.09150 644 ft 27 kts 46°
2026-05-07 19:56 55.56549 52.09413 643 ft 30 kts 46°
2026-05-07 19:56 55.56681 52.09653 644 ft 19 kts 48°
2026-05-07 19:57 55.56691 52.09794 644 ft 10 kts 119°
2026-05-07 19:57 55.56649 52.09873 643 ft 8 kts 141°
2026-05-07 19:57 55.56612 52.09931 643 ft 6 kts 137°
2026-05-07 19:57 55.56594 52.09962 643 ft 1 kts 137°
2026-05-07 19:58 55.56593 52.09962 643 ft 1 kts 137°
2026-05-07 19:58 55.56578 52.09986 643 ft 6 kts 140°
2026-05-07 19:58 55.56541 52.10039 643 ft 6 kts 138°
2026-05-07 19:58 55.56532 52.10052 643 ft 0 kts 139°
2026-05-07 19:59 55.56533 52.10052 643 ft 0 kts 139°